{"data":{"norad_id":63274,"epoch":"2026-05-25T02:06:05.793120Z","epoch_age_seconds":61295,"freshness":"FRESH","line1":"1 63274U 25053K   26145.08756705  .00201642  00000+0  15329-2 0  9999","line2":"2 63274  42.9990  11.8421 0000644 261.3340  98.7455 15.70904916 69686","mean_motion":15.70904916,"eccentricity":6.44e-5,"inclination_deg":42.999,"raan_deg":11.8421,"arg_perigee_deg":261.334,"mean_anomaly_deg":98.7455,"bstar":0.0015329,"rev_number":6968,"period_min":91.666910284212,"perigee_km":355.87582752453,"apogee_km":356.74322423707,"semimajor_km":6734.4465258808,"source":"CELESTRAK","updated_at":"2026-05-25T13:38:19.925968Z"}}